TimeCST,TemperatureF,Dew PointF,Humidity,Sea Level PressureIn,VisibilityMPH,Wind Direction,Wind SpeedMPH,Gust SpeedMPH,PrecipitationIn,Events,Conditions,WindDirDegrees,DateUTC
12:54 AM,21.9,18.0,85,30.15,10.0,Calm,Calm,-,N/A,,Clear,0,2013-02-02 06:54:00
1:54 AM,18.0,15.1,88,30.16,10.0,Calm,Calm,-,N/A,,Clear,0,2013-02-02 07:54:00
2:54 AM,19.9,18.0,92,30.18,10.0,Calm,Calm,-,N/A,,Overcast,0,2013-02-02 08:54:00
3:54 AM,24.1,19.9,84,30.17,10.0,Calm,Calm,-,N/A,,Mostly Cloudy,0,2013-02-02 09:54:00
4:54 AM,24.1,19.9,84,30.19,10.0,Calm,Calm,-,N/A,,Partly Cloudy,0,2013-02-02 10:54:00
5:54 AM,24.1,21.0,88,30.19,10.0,Calm,Calm,-,N/A,,Overcast,0,2013-02-02 11:54:00
6:40 AM,26.6,23.0,86,30.16,10.0,NE,4.6,-,N/A,,Overcast,50,2013-02-02 12:40:00
6:54 AM,28.0,24.1,85,30.20,8.0,Calm,Calm,-,0.00,Snow,Light Snow,0,2013-02-02 12:54:00
7:54 AM,25.0,21.9,88,30.22,8.0,North,4.6,-,0.00,,Overcast,360,2013-02-02 13:54:00
8:54 AM,28.0,23.0,81,30.24,10.0,NNE,5.8,-,N/A,,Overcast,30,2013-02-02 14:54:00
9:54 AM,28.0,21.0,75,30.24,10.0,ENE,6.9,-,N/A,,Overcast,60,2013-02-02 15:54:00
10:16 AM,28.4,21.2,74,30.19,10.0,ENE,6.9,-,N/A,,Overcast,60,2013-02-02 16:16:00
10:54 AM,30.0,21.9,72,30.25,10.0,Calm,Calm,-,N/A,,Overcast,0,2013-02-02 16:54:00
11:54 AM,30.0,23.0,75,30.24,10.0,South,4.6,-,N/A,,Overcast,180,2013-02-02 17:54:00
12:40 PM,30.2,24.8,80,30.18,9.0,Calm,Calm,-,N/A,,Overcast,0,2013-02-02 18:40:00
12:54 PM,32.0,25.0,75,30.22,9.0,Calm,Calm,-,N/A,,Overcast,0,2013-02-02 18:54:00
1:05 PM,33.8,24.8,70,30.17,10.0,SSW,5.8,-,N/A,,Mostly Cloudy,210,2013-02-02 19:05:00
1:54 PM,35.1,27.0,72,30.18,10.0,SSW,5.8,-,N/A,,Clear,200,2013-02-02 19:54:00
2:54 PM,37.0,28.9,73,30.14,9.0,South,10.4,-,N/A,,Clear,170,2013-02-02 20:54:00
3:54 PM,39.9,32.0,73,30.11,9.0,SSE,6.9,-,N/A,,Scattered Clouds,160,2013-02-02 21:54:00
4:54 PM,42.1,35.1,76,30.09,10.0,South,3.5,-,N/A,,Scattered Clouds,190,2013-02-02 22:54:00
5:54 PM,44.1,32.0,63,30.09,10.0,West,6.9,-,N/A,,Mostly Cloudy,280,2013-02-02 23:54:00
6:54 PM,45.0,28.0,52,30.11,10.0,NW,15.0,-,N/A,,Mostly Cloudy,310,2013-02-03 00:54:00
7:54 PM,39.9,30.9,70,30.14,10.0,NNW,11.5,-,N/A,,Partly Cloudy,330,2013-02-03 01:54:00
8:54 PM,39.0,30.0,70,30.15,10.0,WNW,5.8,-,N/A,,Scattered Clouds,290,2013-02-03 02:54:00
9:54 PM,37.0,28.9,73,30.17,10.0,West,6.9,-,N/A,,Clear,280,2013-02-03 03:54:00
10:54 PM,37.9,28.0,68,30.19,10.0,WNW,11.5,21.9,N/A,,Clear,300,2013-02-03 04:54:00
11:54 PM,37.0,26.1,65,30.21,10.0,NW,13.8,-,N/A,,Clear,310,2013-02-03 05:54:00